Year,Month,Day,Hour,Minute,Value (Times are PST for temperature in C)
2009,09,06,00,00,14.20
2009,09,06,00,01,14.20
2009,09,06,00,02,14.20
2009,09,06,00,03,14.20
2009,09,06,00,04,14.20
2009,09,06,00,05,14.20
2009,09,06,00,06,14.20
2009,09,06,00,07,14.10
2009,09,06,00,08,14.10
2009,09,06,00,09,14.10
2009,09,06,00,10,14.10
2009,09,06,00,11,14.10
2009,09,06,00,12,14.10
2009,09,06,00,13,14.10
2009,09,06,00,14,14.10
2009,09,06,00,15,14.10
2009,09,06,00,16,14.10
2009,09,06,00,17,14.10
2009,09,06,00,18,14.10
2009,09,06,00,19,14.00
2009,09,06,00,20,14.00
2009,09,06,00,21,14.00
2009,09,06,00,22,14.00
2009,09,06,00,23,14.00
2009,09,06,00,24,14.00
2009,09,06,00,25,14.00
2009,09,06,00,26,14.00
2009,09,06,00,27,14.00
2009,09,06,00,28,14.00
2009,09,06,00,29,14.00
2009,09,06,00,30,13.90
2009,09,06,00,31,13.90
2009,09,06,00,32,13.90
2009,09,06,00,33,13.90
2009,09,06,00,34,13.90
2009,09,06,00,35,13.90
2009,09,06,00,36,13.90
2009,09,06,00,37,13.90
2009,09,06,00,38,13.90
2009,09,06,00,39,13.90
2009,09,06,00,40,13.90
2009,09,06,00,41,13.90
2009,09,06,00,42,13.90
2009,09,06,00,43,13.90
2009,09,06,00,44,13.90
2009,09,06,00,45,13.90
2009,09,06,00,46,13.80
2009,09,06,00,47,13.80
2009,09,06,00,48,13.80
2009,09,06,00,49,13.80
2009,09,06,00,50,13.80
2009,09,06,00,51,13.80
2009,09,06,00,52,13.80
2009,09,06,00,53,13.80
2009,09,06,00,54,13.80
2009,09,06,00,55,13.80
2009,09,06,00,56,13.80
2009,09,06,00,57,13.80
2009,09,06,00,58,13.80
2009,09,06,00,59,13.80
2009,09,06,01,00,13.80
2009,09,06,01,01,13.80
2009,09,06,01,02,13.70
2009,09,06,01,03,13.70
2009,09,06,01,04,13.70
2009,09,06,01,05,13.70
2009,09,06,01,06,13.70
2009,09,06,01,07,13.70
2009,09,06,01,08,13.70
2009,09,06,01,09,13.60
2009,09,06,01,10,13.60
2009,09,06,01,11,13.60
2009,09,06,01,12,13.60
2009,09,06,01,13,13.60
2009,09,06,01,14,13.60
2009,09,06,01,15,13.60
2009,09,06,01,16,13.50
2009,09,06,01,17,13.50
2009,09,06,01,18,13.50
2009,09,06,01,19,13.50
2009,09,06,01,20,13.50
2009,09,06,01,21,13.40
2009,09,06,01,22,13.40
2009,09,06,01,23,13.40
2009,09,06,01,24,13.40
2009,09,06,01,25,13.40
2009,09,06,01,26,13.40
2009,09,06,01,27,13.40
2009,09,06,01,28,13.40
2009,09,06,01,29,13.40
2009,09,06,01,30,13.40
2009,09,06,01,31,13.40
2009,09,06,01,32,13.40
2009,09,06,01,33,13.40
2009,09,06,01,34,13.40
2009,09,06,01,35,13.40
2009,09,06,01,36,13.40
2009,09,06,01,37,13.40
2009,09,06,01,38,13.40
2009,09,06,01,39,13.40
2009,09,06,01,40,13.40
2009,09,06,01,41,13.40
2009,09,06,01,42,13.40
2009,09,06,01,43,13.40
2009,09,06,01,44,13.50
2009,09,06,01,45,13.50
2009,09,06,01,46,13.50
2009,09,06,01,47,13.40
2009,09,06,01,48,13.40
2009,09,06,01,49,13.50
2009,09,06,01,50,13.50
2009,09,06,01,51,13.50
2009,09,06,01,52,13.50
2009,09,06,01,53,13.50
2009,09,06,01,54,13.50
2009,09,06,01,55,13.50
2009,09,06,01,56,13.50
2009,09,06,01,57,13.50
2009,09,06,01,58,13.50
2009,09,06,01,59,13.50
2009,09,06,02,00,13.50
2009,09,06,02,01,13.40
2009,09,06,02,02,13.40
2009,09,06,02,03,13.40
2009,09,06,02,04,13.40
2009,09,06,02,05,13.40
2009,09,06,02,06,13.40
2009,09,06,02,07,13.40
2009,09,06,02,08,13.40
2009,09,06,02,09,13.40
2009,09,06,02,10,13.40
2009,09,06,02,11,13.40
2009,09,06,02,12,13.40
2009,09,06,02,13,13.40
2009,09,06,02,14,13.40
2009,09,06,02,15,13.40
2009,09,06,02,16,13.30
2009,09,06,02,17,13.30
2009,09,06,02,18,13.30
2009,09,06,02,19,13.30
2009,09,06,02,20,13.30
2009,09,06,02,21,13.30
2009,09,06,02,22,13.30
2009,09,06,02,23,13.20
2009,09,06,02,24,13.20
2009,09,06,02,25,13.20
2009,09,06,02,26,13.20
2009,09,06,02,27,13.20
2009,09,06,02,28,13.20
2009,09,06,02,29,13.20
2009,09,06,02,30,13.20
2009,09,06,02,31,13.20
2009,09,06,02,32,13.20
2009,09,06,02,33,13.20
2009,09,06,02,34,13.20
2009,09,06,02,35,13.20
2009,09,06,02,36,13.20
2009,09,06,02,37,13.20
2009,09,06,02,38,13.20
2009,09,06,02,39,13.20
2009,09,06,02,40,13.20
2009,09,06,02,41,13.10
2009,09,06,02,42,13.10
2009,09,06,02,43,13.10
2009,09,06,02,44,13.10
2009,09,06,02,45,13.10
2009,09,06,02,46,13.10
2009,09,06,02,47,13.10
2009,09,06,02,48,13.10
2009,09,06,02,49,13.10
2009,09,06,02,50,13.10
2009,09,06,02,51,13.10
2009,09,06,02,52,13.10
2009,09,06,02,53,13.10
2009,09,06,02,54,13.10
2009,09,06,02,55,13.10
2009,09,06,02,56,13.10
2009,09,06,02,57,13.10
2009,09,06,02,58,13.20
2009,09,06,02,59,13.20
2009,09,06,03,00,13.20
2009,09,06,03,01,13.20
2009,09,06,03,02,13.20
2009,09,06,03,03,13.20
2009,09,06,03,04,13.20
2009,09,06,03,05,13.20
2009,09,06,03,06,13.20
2009,09,06,03,07,13.20
2009,09,06,03,08,13.20
2009,09,06,03,09,13.10
2009,09,06,03,10,13.10
2009,09,06,03,11,13.10
2009,09,06,03,12,13.10
2009,09,06,03,13,13.10
2009,09,06,03,14,13.20
2009,09,06,03,15,13.20
2009,09,06,03,16,13.20
2009,09,06,03,17,13.20
2009,09,06,03,18,13.20
2009,09,06,03,19,13.20
2009,09,06,03,20,13.20
2009,09,06,03,21,13.20
2009,09,06,03,22,13.20
2009,09,06,03,23,13.20
2009,09,06,03,24,13.20
2009,09,06,03,25,13.20
2009,09,06,03,26,13.20
2009,09,06,03,27,13.30
2009,09,06,03,28,13.30
2009,09,06,03,29,13.30
2009,09,06,03,30,13.30
2009,09,06,03,31,13.30
2009,09,06,03,32,13.30
2009,09,06,03,33,13.30
2009,09,06,03,34,13.30
2009,09,06,03,35,13.30
2009,09,06,03,36,13.30
2009,09,06,03,37,13.40
2009,09,06,03,38,13.40
2009,09,06,03,39,13.40
2009,09,06,03,40,13.40
2009,09,06,03,41,13.40
2009,09,06,03,42,13.30
2009,09,06,03,43,13.30
2009,09,06,03,44,13.30
2009,09,06,03,45,13.30
2009,09,06,03,46,13.30
2009,09,06,03,47,13.30
2009,09,06,03,48,13.30
2009,09,06,03,49,13.30
2009,09,06,03,50,13.30
2009,09,06,03,51,13.30
2009,09,06,03,52,13.30
2009,09,06,03,53,13.30
2009,09,06,03,54,13.30
2009,09,06,03,55,13.30
2009,09,06,03,56,13.30
2009,09,06,03,57,13.30
2009,09,06,03,58,13.30
2009,09,06,03,59,13.30
2009,09,06,04,00,13.30
2009,09,06,04,01,13.30
2009,09,06,04,02,13.30
2009,09,06,04,03,13.30
2009,09,06,04,04,13.30
2009,09,06,04,05,13.30
2009,09,06,04,06,13.30
2009,09,06,04,07,13.30
2009,09,06,04,08,13.30
2009,09,06,04,09,13.30
2009,09,06,04,10,13.30
2009,09,06,04,11,13.30
2009,09,06,04,12,13.30
2009,09,06,04,13,13.40
2009,09,06,04,14,13.40
2009,09,06,04,15,13.40
2009,09,06,04,16,13.40
2009,09,06,04,17,13.40
2009,09,06,04,18,13.40
2009,09,06,04,19,13.40
2009,09,06,04,20,13.40
2009,09,06,04,21,13.40
2009,09,06,04,22,13.40
2009,09,06,04,23,13.40
2009,09,06,04,24,13.40
2009,09,06,04,25,13.40
2009,09,06,04,26,13.40
2009,09,06,04,27,13.40
2009,09,06,04,28,13.40
2009,09,06,04,29,13.30
2009,09,06,04,30,13.30
2009,09,06,04,31,13.30
2009,09,06,04,32,13.30
2009,09,06,04,33,13.30
2009,09,06,04,34,13.30
2009,09,06,04,35,13.30
2009,09,06,04,36,13.30
2009,09,06,04,37,13.30
2009,09,06,04,38,13.30
2009,09,06,04,39,13.30
2009,09,06,04,40,13.20
2009,09,06,04,41,13.20
2009,09,06,04,42,13.20
2009,09,06,04,43,13.20
2009,09,06,04,44,13.20
2009,09,06,04,45,13.20
2009,09,06,04,46,13.20
2009,09,06,04,47,13.20
2009,09,06,04,48,13.10
2009,09,06,04,49,13.10
2009,09,06,04,50,13.10
2009,09,06,04,51,13.10
2009,09,06,04,52,13.10
2009,09,06,04,53,13.10
2009,09,06,04,54,13.10
2009,09,06,04,55,13.00
2009,09,06,04,56,13.00
2009,09,06,04,57,13.00
2009,09,06,04,58,13.00
2009,09,06,04,59,13.00
2009,09,06,05,00,13.00
2009,09,06,05,01,13.00
2009,09,06,05,02,13.00
2009,09,06,05,03,13.00
2009,09,06,05,04,13.00
2009,09,06,05,05,12.90
2009,09,06,05,06,12.90
2009,09,06,05,07,12.90
2009,09,06,05,08,12.90
2009,09,06,05,09,12.90
2009,09,06,05,10,12.90
2009,09,06,05,11,12.90
2009,09,06,05,12,12.80
2009,09,06,05,13,12.80
2009,09,06,05,14,12.80
2009,09,06,05,15,12.80
2009,09,06,05,16,12.80
2009,09,06,05,17,12.80
2009,09,06,05,18,12.80
2009,09,06,05,19,12.80
2009,09,06,05,20,12.80
2009,09,06,05,21,12.70
2009,09,06,05,22,12.70
2009,09,06,05,23,12.70
2009,09,06,05,24,12.70
2009,09,06,05,25,12.70
2009,09,06,05,26,12.70
2009,09,06,05,27,12.70
2009,09,06,05,28,12.60
2009,09,06,05,29,12.60
2009,09,06,05,30,12.60
2009,09,06,05,31,12.60
2009,09,06,05,32,12.60
2009,09,06,05,33,12.60
2009,09,06,05,34,12.60
2009,09,06,05,35,12.50
2009,09,06,05,36,12.50
2009,09,06,05,37,12.50
2009,09,06,05,38,12.50
2009,09,06,05,39,12.50
2009,09,06,05,40,12.50
2009,09,06,05,41,12.50
2009,09,06,05,42,12.40
2009,09,06,05,43,12.40
2009,09,06,05,44,12.40
2009,09,06,05,45,12.40
2009,09,06,05,46,12.40
2009,09,06,05,47,12.40
2009,09,06,05,48,12.40
2009,09,06,05,49,12.40
2009,09,06,05,50,12.40
2009,09,06,05,51,12.40
2009,09,06,05,52,12.30
2009,09,06,05,53,12.30
2009,09,06,05,54,12.30
2009,09,06,05,55,12.30
2009,09,06,05,56,12.30
2009,09,06,05,57,12.30
2009,09,06,05,58,12.30
2009,09,06,05,59,12.30
2009,09,06,06,00,12.20
2009,09,06,06,01,12.20
2009,09,06,06,02,12.20
2009,09,06,06,03,12.20
2009,09,06,06,04,12.20
2009,09,06,06,05,12.20
2009,09,06,06,06,12.20
2009,09,06,06,07,12.20
2009,09,06,06,08,12.20
2009,09,06,06,09,12.20
2009,09,06,06,10,12.10
2009,09,06,06,11,12.10
2009,09,06,06,12,12.10
2009,09,06,06,13,12.10
2009,09,06,06,14,12.10
2009,09,06,06,15,12.10
2009,09,06,06,16,12.10
2009,09,06,06,17,12.10
2009,09,06,06,18,12.10
2009,09,06,06,19,12.10
2009,09,06,06,20,12.10
2009,09,06,06,21,12.10
2009,09,06,06,22,12.10
2009,09,06,06,23,12.10
2009,09,06,06,24,12.10
2009,09,06,06,25,12.20
2009,09,06,06,26,12.20
2009,09,06,06,27,12.20
2009,09,06,06,28,12.20
2009,09,06,06,29,12.20
2009,09,06,06,30,12.30
2009,09,06,06,31,12.30
2009,09,06,06,32,12.30
2009,09,06,06,33,12.30
2009,09,06,06,34,12.30
2009,09,06,06,35,12.30
2009,09,06,06,36,12.30
2009,09,06,06,37,12.30
2009,09,06,06,38,12.30
2009,09,06,06,39,12.30
2009,09,06,06,40,12.20
2009,09,06,06,41,12.20
2009,09,06,06,42,12.20
2009,09,06,06,43,12.20
2009,09,06,06,44,12.20
2009,09,06,06,45,12.20
2009,09,06,06,46,12.20
2009,09,06,06,47,12.20
2009,09,06,06,48,12.20
2009,09,06,06,49,12.20
2009,09,06,06,50,12.20
2009,09,06,06,51,12.20
2009,09,06,06,52,12.20
2009,09,06,06,53,12.10
2009,09,06,06,54,12.10
2009,09,06,06,55,12.10
2009,09,06,06,56,12.10
2009,09,06,06,57,12.10
2009,09,06,06,58,12.10
2009,09,06,06,59,12.00
2009,09,06,07,00,12.00
2009,09,06,07,01,12.00
2009,09,06,07,02,12.00
2009,09,06,07,03,12.00
2009,09,06,07,04,12.00
2009,09,06,07,05,12.00
2009,09,06,07,06,12.00
2009,09,06,07,07,12.00
2009,09,06,07,08,12.00
2009,09,06,07,09,12.00
2009,09,06,07,10,12.00
2009,09,06,07,11,12.00
2009,09,06,07,12,12.00
2009,09,06,07,13,12.00
2009,09,06,07,14,12.00
2009,09,06,07,15,12.00
2009,09,06,07,16,12.00
2009,09,06,07,17,12.00
2009,09,06,07,18,12.00
2009,09,06,07,19,12.00
2009,09,06,07,20,11.90
2009,09,06,07,21,11.90
2009,09,06,07,22,11.90
2009,09,06,07,23,11.90
2009,09,06,07,24,11.90
2009,09,06,07,25,11.90
2009,09,06,07,26,11.90
2009,09,06,07,27,11.90
2009,09,06,07,28,11.80
2009,09,06,07,29,11.80
2009,09,06,07,30,11.80
2009,09,06,07,31,11.80
2009,09,06,07,32,11.80
2009,09,06,07,33,11.90
2009,09,06,07,34,11.90
2009,09,06,07,35,11.90
2009,09,06,07,36,11.90
2009,09,06,07,37,11.90
2009,09,06,07,38,11.90
2009,09,06,07,39,11.90
2009,09,06,07,40,11.90
2009,09,06,07,41,11.90
2009,09,06,07,42,11.90
2009,09,06,07,43,11.90
2009,09,06,07,44,12.00
2009,09,06,07,45,12.00
2009,09,06,07,46,12.00
2009,09,06,07,47,12.00
2009,09,06,07,48,12.00
2009,09,06,07,49,12.00
2009,09,06,07,50,12.00
2009,09,06,07,51,12.00
2009,09,06,07,52,12.00
2009,09,06,07,53,12.00
2009,09,06,07,54,12.00
2009,09,06,07,55,12.00
2009,09,06,07,56,12.00
2009,09,06,07,57,12.10
2009,09,06,07,58,12.10
2009,09,06,07,59,12.10
2009,09,06,08,00,12.10
2009,09,06,08,01,12.10
2009,09,06,08,02,12.10
2009,09,06,08,03,12.10
2009,09,06,08,04,12.10
2009,09,06,08,05,12.10
2009,09,06,08,06,12.10
2009,09,06,08,07,12.10
2009,09,06,08,08,12.10
2009,09,06,08,09,12.10
2009,09,06,08,10,12.10
2009,09,06,08,11,12.10
2009,09,06,08,12,12.10
2009,09,06,08,13,12.10
2009,09,06,08,14,12.10
2009,09,06,08,15,12.10
2009,09,06,08,16,12.10
2009,09,06,08,17,12.10
2009,09,06,08,18,12.10
2009,09,06,08,19,12.10
2009,09,06,08,20,12.10
2009,09,06,08,21,12.10
2009,09,06,08,22,12.10
2009,09,06,08,23,12.10
2009,09,06,08,24,12.10
2009,09,06,08,25,12.10
2009,09,06,08,26,12.10
2009,09,06,08,27,12.10
2009,09,06,08,28,12.10
2009,09,06,08,29,12.20
2009,09,06,08,30,12.20
2009,09,06,08,31,12.20
2009,09,06,08,32,12.20
2009,09,06,08,33,12.20
2009,09,06,08,34,12.20
2009,09,06,08,35,12.20
2009,09,06,08,36,12.20
2009,09,06,08,37,12.20
2009,09,06,08,38,12.20
2009,09,06,08,39,12.10
2009,09,06,08,40,12.10
2009,09,06,08,41,12.10
2009,09,06,08,42,12.10
2009,09,06,08,43,12.10
2009,09,06,08,44,12.10
2009,09,06,08,45,12.10
2009,09,06,08,46,12.10
2009,09,06,08,47,12.10
2009,09,06,08,48,12.10
2009,09,06,08,49,12.10
2009,09,06,08,50,12.10
2009,09,06,08,51,12.10
2009,09,06,08,52,12.10
2009,09,06,08,53,12.10
2009,09,06,08,54,12.10
2009,09,06,08,55,12.10
2009,09,06,08,56,12.10
2009,09,06,08,57,12.10
2009,09,06,08,58,12.10
2009,09,06,08,59,12.10
2009,09,06,09,00,12.10
2009,09,06,09,01,12.00
2009,09,06,09,02,12.00
2009,09,06,09,03,12.00
2009,09,06,09,04,12.00
2009,09,06,09,05,12.00
2009,09,06,09,06,12.00
2009,09,06,09,07,12.00
2009,09,06,09,08,12.00
2009,09,06,09,09,12.00
2009,09,06,09,10,12.00
2009,09,06,09,11,12.00
2009,09,06,09,12,12.00
2009,09,06,09,13,12.10
2009,09,06,09,14,12.10
2009,09,06,09,15,12.10
2009,09,06,09,16,12.10
2009,09,06,09,17,12.10
2009,09,06,09,18,12.10
2009,09,06,09,19,12.20
2009,09,06,09,20,12.20
2009,09,06,09,21,12.20
2009,09,06,09,22,12.20
2009,09,06,09,23,12.20
2009,09,06,09,24,12.20
2009,09,06,09,25,12.20
2009,09,06,09,26,12.20
2009,09,06,09,27,12.30
2009,09,06,09,28,12.30
2009,09,06,09,29,12.30
2009,09,06,09,30,12.30
2009,09,06,09,31,12.30
2009,09,06,09,32,12.30
2009,09,06,09,33,12.30
2009,09,06,09,34,12.30
2009,09,06,09,35,12.30
2009,09,06,09,36,12.30
2009,09,06,09,37,12.30
2009,09,06,09,38,12.40
2009,09,06,09,39,12.40
2009,09,06,09,40,12.40
2009,09,06,09,41,12.40
2009,09,06,09,42,12.40
2009,09,06,09,43,12.40
2009,09,06,09,44,12.40
2009,09,06,09,45,12.40
2009,09,06,09,46,12.40
2009,09,06,09,47,12.50
2009,09,06,09,48,12.50
2009,09,06,09,49,12.60
2009,09,06,09,50,12.60
2009,09,06,09,51,12.60
2009,09,06,09,52,12.70
2009,09,06,09,53,12.70
2009,09,06,09,54,12.80
2009,09,06,09,55,12.80
2009,09,06,09,56,12.80
2009,09,06,09,57,12.80
2009,09,06,09,58,12.80
2009,09,06,09,59,12.90
2009,09,06,10,00,12.90
2009,09,06,10,01,12.90
2009,09,06,10,02,12.90
2009,09,06,10,03,12.90
2009,09,06,10,04,12.90
2009,09,06,10,05,13.00
2009,09,06,10,06,13.00
2009,09,06,10,07,13.10
2009,09,06,10,08,13.10
2009,09,06,10,09,13.10
2009,09,06,10,10,13.10
2009,09,06,10,11,13.00
2009,09,06,10,12,13.00
2009,09,06,10,13,13.00
2009,09,06,10,14,13.00
2009,09,06,10,15,13.00
2009,09,06,10,16,13.00
2009,09,06,10,17,13.00
2009,09,06,10,18,13.00
2009,09,06,10,19,13.00
2009,09,06,10,20,13.10
2009,09,06,10,21,13.10
2009,09,06,10,22,13.10
2009,09,06,10,23,13.10
2009,09,06,10,24,13.10
2009,09,06,10,25,13.20
2009,09,06,10,26,13.20
2009,09,06,10,27,13.10
2009,09,06,10,28,13.10
2009,09,06,10,29,13.10
2009,09,06,10,30,13.20
2009,09,06,10,31,13.20
2009,09,06,10,32,13.20
2009,09,06,10,33,13.20
2009,09,06,10,34,13.20
2009,09,06,10,35,13.20
2009,09,06,10,36,13.20
2009,09,06,10,37,13.20
2009,09,06,10,38,13.20
2009,09,06,10,39,13.20
2009,09,06,10,40,13.20
2009,09,06,10,41,13.20
2009,09,06,10,42,13.20
2009,09,06,10,43,13.20
2009,09,06,10,44,13.20
2009,09,06,10,45,13.20
2009,09,06,10,46,13.20
2009,09,06,10,47,13.20
2009,09,06,10,48,13.20
2009,09,06,10,49,13.20
2009,09,06,10,50,13.20
2009,09,06,10,51,13.20
2009,09,06,10,52,13.30
2009,09,06,10,53,13.30
2009,09,06,10,54,13.30
2009,09,06,10,55,13.30
2009,09,06,10,56,13.30
2009,09,06,10,57,13.30
2009,09,06,10,58,13.30
2009,09,06,10,59,13.30
2009,09,06,11,00,13.30
2009,09,06,11,01,13.30
2009,09,06,11,02,13.30
2009,09,06,11,03,13.30
2009,09,06,11,04,13.30
2009,09,06,11,05,13.30
2009,09,06,11,06,13.30
2009,09,06,11,07,13.30
2009,09,06,11,08,13.40
2009,09,06,11,09,13.40
2009,09,06,11,10,13.40
2009,09,06,11,11,13.40
2009,09,06,11,12,13.40
2009,09,06,11,13,13.40
2009,09,06,11,14,13.40
2009,09,06,11,15,13.40
2009,09,06,11,16,13.40
2009,09,06,11,17,13.40
2009,09,06,11,18,13.40
2009,09,06,11,19,13.40
2009,09,06,11,20,13.50
2009,09,06,11,21,13.50
2009,09,06,11,22,13.50
2009,09,06,11,23,13.50
2009,09,06,11,24,13.50
2009,09,06,11,25,13.50
2009,09,06,11,26,13.60
2009,09,06,11,27,13.60
2009,09,06,11,28,13.60
2009,09,06,11,29,13.60
2009,09,06,11,30,13.60
2009,09,06,11,31,13.60
2009,09,06,11,32,13.60
2009,09,06,11,33,13.60
2009,09,06,11,34,13.60
2009,09,06,11,35,13.60
2009,09,06,11,36,13.60
2009,09,06,11,37,13.60
2009,09,06,11,38,13.70
2009,09,06,11,39,13.70
2009,09,06,11,40,13.70
2009,09,06,11,41,13.70
2009,09,06,11,42,13.70
2009,09,06,11,43,13.70
2009,09,06,11,44,13.70
2009,09,06,11,45,13.70
2009,09,06,11,46,13.70
2009,09,06,11,47,13.70
2009,09,06,11,48,13.70
2009,09,06,11,49,13.70
2009,09,06,11,50,13.60
2009,09,06,11,51,13.60
2009,09,06,11,52,13.60
2009,09,06,11,53,13.60
2009,09,06,11,54,13.60
2009,09,06,11,55,13.60
2009,09,06,11,56,13.50
2009,09,06,11,57,13.50
2009,09,06,11,58,13.50
2009,09,06,11,59,13.40
2009,09,06,12,00,13.40
2009,09,06,12,01,13.40
2009,09,06,12,02,13.40
2009,09,06,12,03,13.40
2009,09,06,12,04,13.40
2009,09,06,12,05,13.40
2009,09,06,12,06,13.40
2009,09,06,12,07,13.40
2009,09,06,12,08,13.40
2009,09,06,12,09,13.40
2009,09,06,12,10,13.40
2009,09,06,12,11,13.40
2009,09,06,12,12,13.40
2009,09,06,12,13,13.40
2009,09,06,12,14,13.40
2009,09,06,12,15,13.40
2009,09,06,12,16,13.40
2009,09,06,12,17,13.40
2009,09,06,12,18,13.40
2009,09,06,12,19,13.50
2009,09,06,12,20,13.50
2009,09,06,12,21,13.50
2009,09,06,12,22,13.50
2009,09,06,12,23,13.50
2009,09,06,12,24,13.50
2009,09,06,12,25,13.50
2009,09,06,12,26,13.50
2009,09,06,12,27,13.50
2009,09,06,12,28,13.50
2009,09,06,12,29,13.50
2009,09,06,12,30,13.50
2009,09,06,12,31,13.50
2009,09,06,12,32,13.50
2009,09,06,12,33,13.60
2009,09,06,12,34,13.60
2009,09,06,12,35,13.70
2009,09,06,12,36,13.70
2009,09,06,12,37,13.70
2009,09,06,12,38,13.80
2009,09,06,12,39,13.90
2009,09,06,12,40,14.00
2009,09,06,12,41,14.00
2009,09,06,12,42,14.00
2009,09,06,12,43,14.10
2009,09,06,12,44,14.00
2009,09,06,12,45,14.00
2009,09,06,12,46,13.90
2009,09,06,12,47,13.90
2009,09,06,12,48,13.90
2009,09,06,12,49,13.90
2009,09,06,12,50,14.00
2009,09,06,12,51,14.10
2009,09,06,12,52,14.10
2009,09,06,12,53,14.20
2009,09,06,12,54,14.30
2009,09,06,12,55,14.40
2009,09,06,12,56,14.50
2009,09,06,12,57,14.50
2009,09,06,12,58,14.60
2009,09,06,12,59,14.60
2009,09,06,13,00,14.60
2009,09,06,13,01,14.60
2009,09,06,13,02,14.60
2009,09,06,13,03,14.60
2009,09,06,13,04,14.60
2009,09,06,13,05,14.60
2009,09,06,13,06,14.60
2009,09,06,13,07,14.60
2009,09,06,13,08,14.60
2009,09,06,13,09,14.60
2009,09,06,13,10,14.60
2009,09,06,13,11,14.60
2009,09,06,13,12,14.60
2009,09,06,13,13,14.60
2009,09,06,13,14,14.60
2009,09,06,13,15,14.60
2009,09,06,13,16,14.60
2009,09,06,13,17,14.50
2009,09,06,13,18,14.50
2009,09,06,13,19,14.50
2009,09,06,13,20,14.50
2009,09,06,13,21,14.50
2009,09,06,13,22,14.40
2009,09,06,13,23,14.40
2009,09,06,13,24,14.40
2009,09,06,13,25,14.40
2009,09,06,13,26,14.40
2009,09,06,13,27,14.40
2009,09,06,13,28,14.30
2009,09,06,13,29,14.30
2009,09,06,13,30,14.30
2009,09,06,13,31,14.30
2009,09,06,13,32,14.30
2009,09,06,13,33,14.30
2009,09,06,13,34,14.30
2009,09,06,13,35,14.30
2009,09,06,13,36,14.40
2009,09,06,13,37,14.40
2009,09,06,13,38,14.50
2009,09,06,13,39,14.50
2009,09,06,13,40,14.50
2009,09,06,13,41,14.50
2009,09,06,13,42,14.50
2009,09,06,13,43,14.50
2009,09,06,13,44,14.60
2009,09,06,13,45,14.70
2009,09,06,13,46,14.70
2009,09,06,13,47,14.80
2009,09,06,13,48,14.80
2009,09,06,13,49,14.90
2009,09,06,13,50,15.00
2009,09,06,13,51,15.00
2009,09,06,13,52,15.00
2009,09,06,13,53,15.00
2009,09,06,13,54,15.00
2009,09,06,13,55,15.00
2009,09,06,13,56,15.10
2009,09,06,13,57,15.10
2009,09,06,13,58,15.10
2009,09,06,13,59,15.10
2009,09,06,14,00,15.10
2009,09,06,14,01,15.20
2009,09,06,14,02,15.20
2009,09,06,14,03,15.20
2009,09,06,14,04,15.20
2009,09,06,14,05,15.20
2009,09,06,14,06,15.20
2009,09,06,14,07,15.20
2009,09,06,14,08,15.20
2009,09,06,14,09,15.20
2009,09,06,14,10,15.10
2009,09,06,14,11,15.00
2009,09,06,14,12,15.00
2009,09,06,14,13,15.00
2009,09,06,14,14,15.00
2009,09,06,14,15,15.00
2009,09,06,14,16,15.00
2009,09,06,14,17,15.00
2009,09,06,14,18,15.00
2009,09,06,14,19,15.00
2009,09,06,14,20,15.00
2009,09,06,14,21,14.90
2009,09,06,14,22,14.90
2009,09,06,14,23,14.80
2009,09,06,14,24,14.80
2009,09,06,14,25,14.80
2009,09,06,14,26,14.80
2009,09,06,14,27,14.70
2009,09,06,14,28,14.70
2009,09,06,14,29,14.80
2009,09,06,14,30,14.80
2009,09,06,14,31,14.80
2009,09,06,14,32,14.80
2009,09,06,14,33,14.70
2009,09,06,14,34,14.70
2009,09,06,14,35,14.70
2009,09,06,14,36,14.70
2009,09,06,14,37,14.70
2009,09,06,14,38,14.70
2009,09,06,14,39,14.60
2009,09,06,14,40,14.60
2009,09,06,14,41,14.60
2009,09,06,14,42,14.50
2009,09,06,14,43,14.50
2009,09,06,14,44,14.50
2009,09,06,14,45,14.50
2009,09,06,14,46,14.50
2009,09,06,14,47,14.50
2009,09,06,14,48,14.50
2009,09,06,14,49,14.60
2009,09,06,14,50,14.60
2009,09,06,14,51,14.70
2009,09,06,14,52,14.70
2009,09,06,14,53,14.80
2009,09,06,14,54,14.80
2009,09,06,14,55,14.80
2009,09,06,14,56,14.80
2009,09,06,14,57,14.80
2009,09,06,14,58,14.80
2009,09,06,14,59,14.80
2009,09,06,15,00,14.70
2009,09,06,15,01,14.70
2009,09,06,15,02,14.70
2009,09,06,15,03,14.70
2009,09,06,15,04,14.70
2009,09,06,15,05,14.80
2009,09,06,15,06,14.80
2009,09,06,15,07,14.80
2009,09,06,15,08,14.80
2009,09,06,15,09,14.80
2009,09,06,15,10,14.90
2009,09,06,15,11,15.00
2009,09,06,15,12,15.00
2009,09,06,15,13,15.00
2009,09,06,15,14,15.00
2009,09,06,15,15,15.00
2009,09,06,15,16,15.00
2009,09,06,15,17,15.00
2009,09,06,15,18,15.00
2009,09,06,15,19,15.00
2009,09,06,15,20,15.00
2009,09,06,15,21,15.00
2009,09,06,15,22,15.00
2009,09,06,15,23,15.00
2009,09,06,15,24,15.00
2009,09,06,15,25,15.00
2009,09,06,15,26,15.00
2009,09,06,15,27,15.00
2009,09,06,15,28,15.00
2009,09,06,15,29,15.00
2009,09,06,15,30,15.00
2009,09,06,15,31,15.00
2009,09,06,15,32,15.00
2009,09,06,15,33,15.00
2009,09,06,15,34,15.00
2009,09,06,15,35,15.00
2009,09,06,15,36,15.00
2009,09,06,15,37,15.00
2009,09,06,15,38,15.00
2009,09,06,15,39,15.00
2009,09,06,15,40,14.90
2009,09,06,15,41,14.80
2009,09,06,15,42,14.80
2009,09,06,15,43,14.80
2009,09,06,15,44,14.70
2009,09,06,15,45,14.70
2009,09,06,15,46,14.70
2009,09,06,15,47,14.70
2009,09,06,15,48,14.70
2009,09,06,15,49,14.70
2009,09,06,15,50,14.70
2009,09,06,15,51,14.60
2009,09,06,15,52,14.60
2009,09,06,15,53,14.50
2009,09,06,15,54,14.50
2009,09,06,15,55,14.40
2009,09,06,15,56,14.40
2009,09,06,15,57,14.40
2009,09,06,15,58,14.40
2009,09,06,15,59,14.30
2009,09,06,16,00,14.30
2009,09,06,16,01,14.30
2009,09,06,16,02,14.30
2009,09,06,16,03,14.20
2009,09,06,16,04,14.20
2009,09,06,16,05,14.20
2009,09,06,16,06,14.10
2009,09,06,16,07,14.10
2009,09,06,16,08,14.10
2009,09,06,16,09,14.00
2009,09,06,16,10,14.00
2009,09,06,16,11,13.90
2009,09,06,16,12,13.90
2009,09,06,16,13,13.90
2009,09,06,16,14,13.90
2009,09,06,16,15,13.90
2009,09,06,16,16,13.80
2009,09,06,16,17,13.80
2009,09,06,16,18,13.80
2009,09,06,16,19,13.80
2009,09,06,16,20,13.80
2009,09,06,16,21,13.90
2009,09,06,16,22,13.90
2009,09,06,16,23,13.90
2009,09,06,16,24,13.90
2009,09,06,16,25,13.90
2009,09,06,16,26,13.90
2009,09,06,16,27,13.90
2009,09,06,16,28,13.90
2009,09,06,16,29,13.90
2009,09,06,16,30,13.90
2009,09,06,16,31,13.90
2009,09,06,16,32,13.90
2009,09,06,16,33,13.90
2009,09,06,16,34,13.90
2009,09,06,16,35,13.90
2009,09,06,16,36,13.90
2009,09,06,16,37,13.90
2009,09,06,16,38,13.90
2009,09,06,16,39,13.90
2009,09,06,16,40,13.90
2009,09,06,16,41,13.90
2009,09,06,16,42,13.90
2009,09,06,16,43,13.90
2009,09,06,16,44,13.90
2009,09,06,16,45,13.90
2009,09,06,16,46,13.90
2009,09,06,16,47,13.90
2009,09,06,16,48,13.90
2009,09,06,16,49,13.90
2009,09,06,16,50,13.90
2009,09,06,16,51,13.90
2009,09,06,16,52,13.90
2009,09,06,16,53,13.90
2009,09,06,16,54,13.90
2009,09,06,16,55,13.90
2009,09,06,16,56,13.90
2009,09,06,16,57,13.80
2009,09,06,16,58,13.80
2009,09,06,16,59,13.80
2009,09,06,17,00,13.80
2009,09,06,17,01,13.80
2009,09,06,17,02,13.80
2009,09,06,17,03,13.80
2009,09,06,17,04,13.80
2009,09,06,17,05,13.80
2009,09,06,17,06,13.80
2009,09,06,17,07,13.80
2009,09,06,17,08,13.90
2009,09,06,17,09,13.90
2009,09,06,17,10,13.90
2009,09,06,17,11,13.90
2009,09,06,17,12,13.80
2009,09,06,17,13,13.80
2009,09,06,17,14,13.80
2009,09,06,17,15,13.80
2009,09,06,17,16,13.80
2009,09,06,17,17,13.80
2009,09,06,17,18,13.80
2009,09,06,17,19,13.80